GW2742 Weather Reports


time (UTC)temp
C
wind
direction
speed
KPH
gust
KPH
rain 1hr
cm
rain 24hr
cm
rain mn
cm
humidity
%
barometer
mb
20260507051022 10 0 1.6 11.3 0.00 0.00 0.00 35 1012.6
20260507050523 10 25 4.8 11.3 0.00 0.00 0.00 36 1012.1
20260507050040 10 25 4.8 8.0 0.00 0.00 0.00 36 1011.9
20260507045527 10 24 1.6 8.0 0.00 0.00 0.00 34 1011.9
20260507045027 10 53 3.2 8.0 0.00 0.00 0.00 32 1011.9
20260507044537 11 31 3.2 8.0 0.00 0.00 0.00 30 1012.0
20260507044026 11 68 3.2 8.0 0.00 0.00 0.00 29 1012.0
20260507043524 11 87 1.6 6.4 0.00 0.00 0.00 29 1011.9
20260507043038 11 79 1.6 6.4 0.00 0.00 0.00 31 1012.0
20260507042525 11 144 1.6 6.4 0.00 0.00 0.00 29 1011.9
20260507042025 11 138 1.6 8.0 0.00 0.00 0.00 29 1011.8
20260507041549 11 114 3.2 8.0 0.00 0.00 0.00 29 1011.8
20260507041023 11 232 0.0 3.2 0.00 0.00 0.00 29 1012.0
20260507040527 11 231 1.6 6.4 0.00 0.00 0.00 29 1012.2
20260507040039 11 231 1.6 6.4 0.00 0.00 0.00 29 1011.9
20260507035524 11 193 1.6 4.8 0.00 0.00 0.00 29 1011.8
20260507035023 11 130 1.6 6.4 0.00 0.00 0.00 29 1012.0
20260507034538 11 119 1.6 6.4 0.00 0.00 0.00 28 1012.2
20260507034023 11 115 3.2 8.0 0.00 0.00 0.00 30 1012.0
20260507033531 11 172 3.2 8.0 0.00 0.00 0.00 29 1012.1
20260507033037 11 146 1.6 6.4 0.00 0.00 0.00 30 1012.1
20260507032526 11 34 0.0 8.0 0.00 0.00 0.00 31 1012.3
20260507032023 11 0 0.0 8.0 0.00 0.00 0.00 29 1012.1
20260507031543 11 41 3.2 8.0 0.00 0.00 0.00 29 1011.9
20260507031023 11 235 0.0 6.4 0.00 0.00 0.00 29 1011.8
20260507030526 11 232 1.6 6.4 0.00 0.00 0.00 29 1011.7
20260507030038 11 0 0.0 4.8 0.00 0.00 0.00 29 1011.7
20260507025523 11 0 0.0 4.8 0.00 0.00 0.00 29 1011.7
20260507025026 11 0 0.0 4.8 0.00 0.00 0.00 28 1011.6
20260507024542 11 82 0.0 4.8 0.00 0.00 0.00 27 1011.6
20260507024024 12 0 0.0 4.8 0.00 0.00 0.00 29 1011.6
20260507023525 12 136 0.0 6.4 0.00 0.00 0.00 27 1011.6
20260507023037 12 135 1.6 6.4 0.00 0.00 0.00 27 1011.6
20260507022523 12 179 1.6 4.8 0.00 0.00 0.00 28 1011.8
20260507022024 12 122 0.0 6.4 0.00 0.00 0.00 27 1011.6
20260507021537 12 0 3.2 8.0 0.00 0.00 0.00 27 1011.5
20260507021029 12 0 1.6 9.7 0.00 0.00 0.00 26 1011.5
20260507020526 12 144 3.2 9.7 0.00 0.00 0.00 26 1011.4
20260507020045 12 131 3.2 12.9 0.00 0.00 0.00 27 1011.6
20260507015522 13 124 4.8 12.9 0.00 0.00 0.00 26 1011.5
20260507015029 13 97 4.8 17.7 0.00 0.00 0.00 26 1011.3
20260507014554 13 139 8.0 17.7 0.00 0.00 0.00 25 1011.4
20260507014029 13 146 6.4 14.5 0.00 0.00 0.00 26 1011.3
20260507013522 13 159 4.8 17.7 0.00 0.00 0.00 25 1011.5
20260507013045 13 153 8.0 17.7 0.00 0.00 0.00 24 1011.4
20260507012524 14 158 4.8 17.7 0.00 0.00 0.00 25 1011.3
20260507012025 14 103 4.8 17.7 0.00 0.00 0.00 25 1011.3
20260507011540 14 89 8.0 17.7 0.00 0.00 0.00 24 1011.4
20260507011023 15 97 8.0 16.1 0.00 0.00 0.00 24 1011.4
20260507010522 15 115 6.4 14.5 0.00 0.00 0.00 24 1011.4
20260507010036 15 120 8.0 16.1 0.00 0.00 0.00 24 1011.5
20260507005523 15 170 8.0 16.1 0.00 0.00 0.00 24 1011.6
20260507005023 15 97 6.4 14.5 0.00 0.00 0.00 24 1011.6
20260507004535 15 142 6.4 16.1 0.00 0.00 0.00 24 1011.6
20260507004023 15 114 3.2 16.1 0.00 0.00 0.00 25 1011.6
20260507003523 15 151 8.0 16.1 0.00 0.00 0.00 24 1011.6
20260507003038 15 184 4.8 14.5 0.00 0.00 0.00 25 1011.7
20260507002523 15 159 9.7 14.5 0.00 0.00 0.00 24 1011.6
20260507002023 15 180 6.4 19.3 0.00 0.00 0.00 26 1011.6
20260507001544 15 103 8.0 19.3 0.00 0.00 0.00 23 1011.8
20260507001022 15 174 6.4 17.7 0.00 0.00 0.00 25 1011.8
20260507000526 15 122 8.0 17.7 0.00 0.00 0.00 24 1011.8
20260507000036 15 149 9.7 16.1 0.00 0.00 0.00 24 1011.8
20260506235523 15 146 4.8 16.1 0.00 0.00 0.00 25 1011.8
20260506235022 15 190 9.7 16.1 0.00 0.00 0.00 24 1012.0
20260506234536 15 139 4.8 16.1 0.00 0.00 0.00 26 1012.0
20260506234022 15 143 8.0 20.9 0.00 0.00 0.00 25 1012.0
20260506233523 15 199 8.0 20.9 0.00 0.00 0.00 26 1012.1
20260506233043 15 100 4.8 14.5 0.00 0.00 0.00 26 1012.1
20260506232522 15 114 4.8 14.5 0.00 0.00 0.00 23 1012.1
20260506232023 15 124 6.4 17.7 0.00 0.00 0.00 26 1012.1
20260506231540 15 190 4.8 17.7 0.00 0.00 0.00 26 1012.1
20260506231024 15 91 8.0 19.3 0.00 0.00 0.00 24 1012.2
20260506230522 15 183 8.0 19.3 0.00 0.00 0.00 26 1012.3
20260506230037 15 105 9.7 19.3 0.00 0.00 0.00 24 1012.4
20260506225526 15 143 8.0 19.3 0.00 0.00 0.00 24 1012.3
20260506225029 15 133 6.4 19.3 0.00 0.00 0.00 24 1012.3
20260506224540 15 0 8.0 17.7 0.00 0.00 0.00 25 1012.3
20260506224026 15 103 8.0 17.7 0.00 0.00 0.00 25 1012.5
20260506223526 15 101 8.0 19.3 0.00 0.00 0.00 25 1012.5
20260506223100 15 94 8.0 19.3 0.00 0.00 0.00 25 1012.5
20260506222526 15 122 8.0 19.3 0.00 0.00 0.00 26 1012.6
20260506222027 15 57 6.4 17.7 0.00 0.00 0.00 29 1012.8
20260506221543 15 139 9.7 17.7 0.00 0.00 0.00 25 1012.8
20260506221026 15 153 6.4 16.1 0.00 0.00 0.00 24 1013.0
20260506220527 15 124 6.4 16.1 0.00 0.00 0.00 24 1013.1
20260506220039 15 63 6.4 19.3 0.00 0.00 0.00 24 1013.1
20260506215526 15 8 8.0 20.9 0.00 0.00 0.00 23 1013.1
20260506215026 15 85 8.0 20.9 0.00 0.00 0.00 25 1013.2
20260506214540 14 80 6.4 12.9 0.00 0.00 0.00 27 1013.3
20260506214027 14 144 4.8 12.9 0.00 0.00 0.00 23 1013.3
20260506213526 14 243 1.6 12.9 0.00 0.00 0.00 24 1013.4
20260506213037 14 123 6.4 12.9 0.00 0.00 0.00 25 1013.5
20260506212526 14 103 1.6 14.5 0.00 0.00 0.00 23 1013.6
20260506212026 14 195 6.4 14.5 0.00 0.00 0.00 23 1013.8
20260506211544 13 282 3.2 11.3 0.00 0.00 0.00 25 1013.9
20260506211027 13 174 3.2 11.3 0.00 0.00 0.00 25 1013.9
20260506210527 13 4 4.8 11.3 0.00 0.00 0.00 24 1014.2
20260506210041 13 72 3.2 9.7 0.00 0.00 0.00 27 1014.1
20260506205525 13 237 3.2 8.0 0.00 0.00 0.00 26 1014.2
20260506205026 13 41 1.6 9.7 0.00 0.00 0.00 24 1014.3
20260506204538 13 148 3.2 9.7 0.00 0.00 0.00 25 1014.4
20260506204026 13 169 3.2 20.9 0.00 0.00 0.00 29 1014.3
20260506203526 13 162 6.4 20.9 0.00 0.00 0.00 25 1014.4
20260506203044 13 89 6.4 20.9 0.00 0.00 0.00 26 1014.6
20260506202527 12 83 3.2 12.9 0.00 0.00 0.00 26 1014.7
20260506202027 12 153 4.8 11.3 0.00 0.00 0.00 27 1014.8
20260506201537 12 236 4.8 11.3 0.00 0.00 0.00 26 1014.8
20260506201026 12 42 4.8 11.3 0.00 0.00 0.00 24 1014.9
20260506200526 12 272 6.4 11.3 0.00 0.00 0.00 25 1015.0
20260506200049 12 182 3.2 9.7 0.00 0.00 0.00 36 1015.0
20260506195526 12 1 1.6 11.3 0.00 0.00 0.00 29 1015.1
20260506195028 12 75 4.8 11.3 0.00 0.00 0.00 32 1015.2
20260506194539 12 228 3.2 12.9 0.00 0.00 0.00 35 1015.4
20260506194051 11 243 4.8 16.1 0.00 0.00 0.00 27 1015.4
20260506193526 11 155 4.8 16.1 0.00 0.00 0.00 26 1015.5
20260506193036 11 220 9.7 16.1 0.00 0.00 0.00 27 1015.6
20260506192526 12 206 8.0 12.9 0.00 0.00 0.00 29 1015.7
20260506192026 11 153 4.8 12.9 0.00 0.00 0.00 28 1015.7
20260506191536 11 315 3.2 14.5 0.00 0.00 0.00 27 1015.8
20260506191026 11 190 6.4 16.1 0.00 0.00 0.00 29 1015.8
20260506190528 11 198 8.0 16.1 0.00 0.00 0.00 32 1016.1
20260506190036 11 221 1.6 19.3 0.00 0.00 0.00 30 1016.1
20260506185526 11 150 9.7 19.3 0.00 0.00 0.00 29 1016.3
20260506185027 11 49 3.2 12.9 0.00 0.00 0.00 30 1016.3
20260506184540 11 184 6.4 16.1 0.00 0.00 0.00 30 1016.4
20260506184027 11 238 6.4 19.3 0.00 0.00 0.00 36 1016.5
20260506183527 10 200 9.7 19.3 0.00 0.00 0.00 32 1016.4
20260506183037 10 119 9.7 16.1 0.00 0.00 0.00 34 1016.5
20260506182526 10 122 6.4 14.5 0.00 0.00 0.00 33 1016.7
20260506182025 10 166 6.4 19.3 0.00 0.00 0.00 36 1016.7
20260506181538 10 138 8.0 19.3 0.00 0.00 0.00 35 1016.9
20260506181027 10 144 8.0 19.3 0.00 0.00 0.00 36 1016.8
20260506180529 10 208 11.3 19.3 0.00 0.00 0.00 35 1016.9
20260506180049 10 172 3.2 16.1 0.00 0.00 0.00 34 1017.1
20260506175529 10 0 8.0 16.1 0.00 0.00 0.00 32 1017.3
20260506175027 10 184 4.8 16.1 0.00 0.00 0.00 39 1017.3
20260506174536 9 255 1.6 16.1 0.00 0.00 0.00 36 1017.3
20260506174026 9 135 6.4 16.1 0.00 0.00 0.00 36 1017.6
20260506173525 8 146 1.6 14.5 0.00 0.00 0.00 39 1017.6
20260506173041 8 76 6.4 19.3 0.00 0.00 0.00 36 1017.7
20260506172526 8 88 4.8 19.3 0.00 0.00 0.00 37 1017.8
20260506172030 8 165 9.7 20.9 0.00 0.00 0.00 40 1017.9
20260506171549 8 265 8.0 20.9 0.00 0.00 0.00 40 1017.9
20260506171026 8 264 6.4 14.5 0.00 0.00 0.00 39 1018.0
20260506170526 8 166 3.2 12.9 0.00 0.00 0.00 38 1018.1
20260506170038 8 192 3.2 14.5 0.00 0.00 0.00 38 1018.1
20260506165526 8 172 3.2 14.5 0.00 0.00 0.00 41 1018.2
20260506165027 7 127 6.4 14.5 0.00 0.00 0.00 39 1018.1
20260506164538 7 245 4.8 14.5 0.00 0.00 0.00 41 1018.2
20260506164026 7 51 4.8 9.7 0.00 0.00 0.00 43 1018.0
20260506163522 7 309 4.8 14.5 0.00 0.00 0.00 41 1018.1
20260506163048 7 125 6.4 17.7 0.00 0.00 0.00 42 1018.2
20260506162522 7 198 8.0 17.7 0.00 0.00 0.00 43 1018.2
20260506162022 8 57 4.8 14.5 0.00 0.00 0.00 43 1018.2
20260506161548 7 181 3.2 14.5 0.00 0.00 0.00 44 1018.3
20260506161022 7 148 1.6 11.3 0.00 0.00 0.00 45 1018.4
20260506160529 7 98 4.8 11.3 0.00 0.00 0.00 44 1018.5
20260506160040 7 127 4.8 14.5 0.00 0.00 0.00 47 1018.6
20260506155522 6 91 6.4 14.5 0.00 0.00 0.00 49 1018.7
20260506155022 6 65 4.8 11.3 0.00 0.00 0.00 49 1018.7
20260506154538 6 79 1.6 9.7 0.00 0.00 0.00 50 1018.8
20260506154025 6 0 3.2 9.7 0.00 0.00 0.00 51 1018.9
20260506153523 6 199 3.2 11.3 0.00 0.00 0.00 52 1018.9
20260506153045 6 167 4.8 11.3 0.00 0.00 0.00 53 1019.0
20260506152522 6 75 3.2 6.4 0.00 0.00 0.00 52 1019.1
20260506152025 5 67 1.6 8.0 0.00 0.00 0.00 53 1019.2
20260506151537 5 0 1.6 8.0 0.00 0.00 0.00 53 1019.3
20260506151022 5 92 1.6 8.0 0.00 0.00 0.00 57 1019.3
20260506150522 4 136 1.6 8.0 0.00 0.00 0.00 56 1019.2
20260506150037 4 193 1.6 8.0 0.00 0.00 0.00 55 1019.3
20260506145522 4 141 1.6 6.4 0.00 0.00 0.00 59 1019.2
20260506145025 3 231 1.6 4.8 0.00 0.00 0.00 60 1019.3
20260506144540 3 158 0.0 6.4 0.00 0.00 0.00 60 1019.3
20260506144022 3 158 1.6 6.4 0.00 0.00 0.00 61 1019.5
20260506143525 3 171 1.6 4.8 0.00 0.00 0.00 64 1019.6
20260506143037 2 0 1.6 4.8 0.00 0.00 0.00 61 1019.5
20260506142522 2 220 1.6 4.8 0.00 0.00 0.00 62 1019.6
20260506142022 2 0 0.0 3.2 0.00 0.00 0.00 64 1019.7
20260506141538 2 0 0.0 3.2 0.00 0.00 0.00 67 1019.7
20260506141023 1 0 0.0 3.2 0.00 0.00 0.00 68 1019.8
20260506140523 1 0 0.0 3.2 0.00 0.00 0.00 71 1019.8
20260506140043 0 0 0.0 3.2 0.00 0.00 0.00 70 1019.7
20260506135530 0 0 0.0 4.8 0.00 0.00 0.00 72 1019.7
20260506135027 0 213 0.0 4.8 0.00 0.00 0.00 72 1019.7
20260506134606 0 213 1.6 4.8 0.00 0.00 0.00 73 1019.8
20260506134022 -1 213 1.6 4.8 0.00 0.00 0.00 73 1019.8
20260506133521 -1 213 1.6 4.8 0.00 0.00 0.00 73 1019.7
20260506133038 -1 0 0.0 3.2 0.00 0.00 0.00 75 1019.7
20260506132523 -1 0 0.0 4.8 0.00 0.00 0.00 76 1019.8
20260506132023 -2 188 1.6 4.8 0.00 0.00 0.00 76 1019.7
20260506131546 -2 188 1.6 4.8 0.00 0.00 0.00 77 1019.7
20260506131027 -2 188 1.6 4.8 0.00 0.00 0.00 79 1019.6
20260506130532 -2 188 1.6 4.8 0.00 0.00 0.00 81 1019.6
20260506130037 -3 0 0.0 0.0 0.00 0.00 0.00 85 1019.5
20260506125528 -3 0 0.0 0.0 0.00 0.00 0.00 85 1019.4
20260506125026 -4 0 0.0 0.0 0.00 0.00 0.00 84 1019.4
20260506124536 -5 0 0.0 0.0 0.00 0.00 0.00 84 1019.4
20260506124026 -5 0 0.0 0.0 0.00 0.00 0.00 83 1019.1
20260506123526 -5 0 0.0 0.0 0.00 0.00 0.00 83 1019.3
20260506123043 -5 0 0.0 3.2 0.00 0.00 0.00 84 1019.2
20260506122527 -5 0 0.0 3.2 0.00 0.00 0.00 83 1019.2
20260506122026 -5 188 0.0 1.6 0.00 0.00 0.00 83 1019.2
20260506121539 -5 0 0.0 0.0 0.00 0.00 0.00 82 1019.2
20260506121026 -5 0 0.0 1.6 0.00 0.00 0.00 82 1019.1
20260506120530 -5 0 0.0 3.2 0.00 0.00 0.00 82 1019.1
20260506120037 -4 0 0.0 3.2 0.00 0.00 0.00 82 1019.1
20260506115526 -4 188 0.0 3.2 0.00 0.00 0.00 81 1019.1
20260506115026 -4 0 0.0 0.0 0.00 0.00 0.00 80 1019.0
20260506114544 -4 0 0.0 0.0 0.00 0.00 0.00 80 1019.1
20260506114026 -4 0 0.0 1.6 0.00 0.00 0.00 80 1019.1
20260506113526 -4 0 0.0 3.2 0.00 0.00 0.00 80 1019.1
20260506113039 -4 0 0.0 3.2 0.00 0.00 0.00 81 1019.0
20260506112527 -4 188 0.0 3.2 0.00 0.00 0.00 81 1019.0
20260506112026 -4 0 0.0 0.0 0.00 0.00 0.00 81 1019.0
20260506111537 -4 0 0.0 0.0 0.00 0.00 0.00 81 1018.9
20260506111027 -4 0 0.0 0.0 0.00 0.00 0.00 81 1018.8
20260506110526 -3 0 0.0 1.6 0.00 0.00 0.00 80 1018.9
20260506110039 -3 0 0.0 1.6 0.00 0.00 0.00 81 1018.8
20260506105526 -3 0 0.0 3.2 0.00 0.00 0.00 82 1018.9
20260506105025 -3 0 0.0 3.2 0.00 0.00 0.00 82 1018.8
20260506104541 -4 0 0.0 0.0 0.00 0.00 0.00 81 1018.9
20260506104025 -4 0 0.0 0.0 0.00 0.00 0.00 81 1018.8
20260506103526 -3 0 0.0 0.0 0.00 0.00 0.00 80 1018.8
20260506103037 -3 0 0.0 0.0 0.00 0.00 0.00 80 1018.9
20260506102526 -3 0 0.0 1.6 0.00 0.00 0.00 80 1018.9
20260506102027 -3 0 0.0 3.2 0.00 0.00 0.00 80 1018.8
20260506101536 -3 187 0.0 3.2 0.00 0.00 0.00 80 1018.7
20260506101026 -3 187 0.0 3.2 0.00 0.00 0.00 79 1018.8
20260506100526 -3 0 0.0 3.2 0.00 0.00 0.00 79 1018.7
20260506100037 -3 187 1.6 3.2 0.00 0.00 0.00 79 1018.7
20260506095526 -3 0 0.0 3.2 0.00 0.00 0.00 79 1018.7
20260506095027 -3 187 0.0 3.2 0.00 0.00 0.00 79 1018.7
20260506094541 -3 0 0.0 4.8 0.00 0.00 0.00 79 1018.7
20260506094030 -3 187 1.6 4.8 0.00 0.00 0.00 78 1018.8
20260506093527 -2 187 3.2 4.8 0.00 0.00 0.00 79 1018.9
20260506093036 -2 187 1.6 4.8 0.00 0.00 0.00 79 1018.8
20260506092528 -2 187 1.6 4.8 0.00 0.00 0.00 79 1018.9
20260506092028 -2 0 1.6 4.8 0.00 0.00 0.00 79 1018.9
20260506091537 -2 187 1.6 6.4 0.00 0.00 0.00 79 1018.9
20260506091027 -2 187 3.2 6.4 0.00 0.00 0.00 79 1018.8
20260506090526 -2 187 1.6 4.8 0.00 0.00 0.00 79 1018.8
20260506090036 -2 187 0.0 1.6 0.00 0.00 0.00 79 1018.7
20260506085527 -2 0 0.0 1.6 0.00 0.00 0.00 78 1018.7
20260506085027 -2 0 0.0 1.6 0.00 0.00 0.00 78 1018.8
20260506084536 -2 0 0.0 1.6 0.00 0.00 0.00 78 1018.8
20260506084027 -2 187 0.0 3.2 0.00 0.00 0.00 78 1018.8
20260506083527 -2 187 0.0 3.2 0.00 0.00 0.00 78 1018.7
20260506083042 -1 187 1.6 4.8 0.00 0.00 0.00 78 1018.7
20260506082527 -1 187 1.6 4.8 0.00 0.00 0.00 78 1018.7
20260506082028 -1 187 3.2 4.8 0.00 0.00 0.00 77 1018.7
20260506081546 -1 187 1.6 3.2 0.00 0.00 0.00 78 1018.7
20260506081028 -1 187 0.0 3.2 0.00 0.00 0.00 77 1018.7
20260506080529 -1 0 1.6 3.2 0.00 0.00 0.00 76 1018.7
20260506073526 -1 187 0.0 4.8 0.00 0.00 0.00 76 1018.9
20260506073037 -1 187 1.6 4.8 0.00 0.00 0.00 76 1018.8
20260506072526 -1 187 1.6 4.8 0.00 0.00 0.00 75 1018.8
20260506072029 -1 187 0.0 4.8 0.00 0.00 0.00 75 1018.9
20260506071535 -1 188 1.6 4.8 0.00 0.00 0.00 75 1018.9
20260506071027 -1 187 0.0 4.8 0.00 0.00 0.00 74 1018.9
20260506070525 -1 0 0.0 0.0 0.00 0.00 0.00 73 1019.0
20260506062027 0 0 0.0 0.0 0.00 0.00 0.00 72 1018.9
20260506061541 0 0 0.0 0.0 0.00 0.00 0.00 71 1019.1
20260506061024 0 0 0.0 0.0 0.00 0.00 0.00 71 1018.9
20260506060528 0 0 0.0 0.0 0.00 0.00 0.00 71 1018.8